📊 Raw Sensor Data
Showing records 46376 to 46400 of 85,069 total
| ID | Distance (ft) | Battery V | Battery A | Int Temp (°F) | Int Humid (%) | Ext Temp (°F) | Solar V | RSSI | SNR | Time Stamp |
|---|---|---|---|---|---|---|---|---|---|---|
| 38706 | -- | 4.08 | 43 | 54 | 40 | 54 | 4.50 | -92 | 8 | 04/24/2025 08:16 AM |
| 38705 | -- | 4.03 | 48 | 54 | 40 | 53 | 4.50 | -88 | 8 | 04/24/2025 08:00 AM |
| 38704 | -- | 4.00 | 33 | 53 | 40 | 53 | 4.50 | -88 | 6 | 04/24/2025 07:45 AM |
| 38703 | -- | 4.02 | 8 | 52 | 40 | 52 | 4.50 | -86 | 7 | 04/24/2025 07:30 AM |
| 38702 | -- | 3.98 | 9 | 51 | 40 | 51 | 4.50 | -86 | 7 | 04/24/2025 07:15 AM |
| 38701 | -- | 3.95 | 5 | 51 | 40 | 51 | 4.50 | -87 | 8 | 04/24/2025 07:00 AM |
| 38700 | -- | 3.90 | 0 | 50 | 40 | 51 | 4.50 | -88 | 7 | 04/24/2025 06:45 AM |
| 38699 | -- | 3.88 | -20 | 50 | 40 | 50 | 4.50 | -86 | 8 | 04/24/2025 06:30 AM |
| 38698 | -- | 3.89 | -9 | 49 | 40 | 50 | 4.10 | -91 | 6 | 04/24/2025 06:15 AM |
| 38697 | -- | 3.90 | -35 | 49 | 40 | 50 | 0.60 | -92 | 6 | 04/24/2025 06:00 AM |
| 38696 | -- | 3.90 | -5 | 48 | 40 | 49 | 0.10 | -92 | 8 | 04/24/2025 05:45 AM |
| 38695 | -- | 3.96 | -5 | 48 | 40 | 49 | 0.00 | -86 | 6 | 04/24/2025 05:30 AM |
| 38694 | 15.6 | 3.90 | -5 | 47 | 40 | 49 | 0.00 | -87 | 8 | 04/24/2025 05:15 AM |
| 38693 | -- | 3.96 | -5 | 47 | 41 | 49 | 0.00 | -86 | 9 | 04/24/2025 05:00 AM |
| 38692 | -- | 3.90 | -5 | 47 | 41 | 48 | 0.10 | -95 | 6 | 04/24/2025 04:45 AM |
| 38691 | -- | 3.96 | -5 | 46 | 41 | 48 | 0.00 | -98 | 6 | 04/24/2025 04:30 AM |
| 38690 | -- | 3.90 | -5 | 46 | 41 | 48 | 0.00 | -86 | 7 | 04/24/2025 04:15 AM |
| 38689 | -- | 3.96 | -5 | 46 | 41 | 48 | 0.10 | -88 | 6 | 04/24/2025 04:00 AM |
| 38688 | -- | 3.90 | -5 | 46 | 41 | 48 | 0.10 | -84 | 7 | 04/24/2025 03:45 AM |
| 38687 | -- | 3.96 | -5 | 46 | 41 | 47 | 0.00 | -99 | 5 | 04/24/2025 03:31 AM |
| 38686 | -- | 3.90 | -5 | 46 | 41 | 48 | 0.10 | -89 | 8 | 04/24/2025 03:15 AM |
| 38685 | -- | 3.96 | -5 | 46 | 41 | 48 | 0.00 | -91 | 6 | 04/24/2025 03:00 AM |
| 38684 | -- | 3.91 | -5 | 46 | 41 | 48 | 0.00 | -91 | 8 | 04/24/2025 02:45 AM |
| 38683 | 15.6 | 3.97 | -5 | 46 | 41 | 48 | 0.00 | -90 | 8 | 04/24/2025 02:15 AM |
| 38682 | -- | 3.91 | -5 | 47 | 41 | 48 | 0.00 | -86 | 8 | 04/24/2025 02:01 AM |